When you browse on this site, cookies collect data to enhance your experience and personalize the content and advertising you see.
Visit our Privacy Policy to learn more. By continuing to use the site, you agree to this use of cookies and data.
  • In Lithuania
  • List of Countries
  • For 7 days
  • Water Temperature
  • Satellite Maps
  • Weather Map
  • Weather Widgets
  • user-avatar
    Login

    Hourly Weather Osinovo

    Today, 25 June, Tuesday

    Time Temperature Precipitation Wind Pressure Humidity
    00:00 +16°C° 0 mm 3 mps 746 mmHg 74%
    01:00 +16°C° 0 mm 3 mps 746 mmHg 76%
    02:00 +14°C° 0 mm 3 mps 746 mmHg 78%
    03:00 +15°C° 0 mm 2 mps 747 mmHg 82%
    04:00 +14°C° 0 mm 3 mps 747 mmHg 82%
    05:00 +14°C° 0 mm 3 mps 747 mmHg 82%
    06:00 +14°C° 0 mm 3 mps 747 mmHg 82%
    07:00 +16°C° 0 mm 3 mps 748 mmHg 76%
    08:00 +18°C° 0 mm 4 mps 748 mmHg 70%
    09:00 +19°C° 0 mm 4 mps 749 mmHg 65%
    10:00 +20°C° 0 mm 4 mps 749 mmHg 62%
    11:00 +21°C° 0 mm 4 mps 749 mmHg 59%
    12:00 +21°C° 0 mm 4 mps 749 mmHg 56%
    13:00 +22°C° 0.1 mm 4 mps 749 mmHg 56%
    14:00 +22°C° 0.1 mm 4 mps 749 mmHg 56%
    15:00 +22°C° 0.1 mm 4 mps 749 mmHg 56%
    16:00 +21°C° 0 mm 4 mps 749 mmHg 60%
    17:00 +21°C° 0 mm 3 mps 748 mmHg 63%
    18:00 +21°C° 0 mm 3 mps 748 mmHg 67%
    19:00 +19°C° 0 mm 2 mps 748 mmHg 69%
    20:00 +17°C° 0 mm 2 mps 749 mmHg 71%
    21:00 +16°C° 0 mm 1 mps 749 mmHg 73%
    22:00 +15°C° 0 mm 1 mps 749 mmHg 74%
    23:00 +14°C° 0 mm 1 mps 748 mmHg 74%

    Tomorrow, 26 June, Wednesday

    Time Temperature Precipitation Wind Pressure Humidity
    00:00 +13°C° 0 mm 0 mps 748 mmHg 75%
    01:00 +14°C° 0 mm 1 mps 748 mmHg 75%
    02:00 +13°C° 0 mm 1 mps 749 mmHg 75%
    03:00 +13°C° 0 mm 1 mps 749 mmHg 76%
    04:00 +14°C° 0 mm 1 mps 749 mmHg 77%
    05:00 +14°C° 0 mm 1 mps 748 mmHg 79%
    06:00 +15°C° 0 mm 1 mps 748 mmHg 81%
    07:00 +16°C° 0 mm 1 mps 748 mmHg 76%
    08:00 +18°C° 0 mm 2 mps 748 mmHg 71%
    09:00 +19°C° 0 mm 2 mps 748 mmHg 67%
    10:00 +20°C° 0 mm 2 mps 748 mmHg 62%
    11:00 +21°C° 0 mm 2 mps 747 mmHg 58%
    12:00 +22°C° 0 mm 3 mps 747 mmHg 53%
    13:00 +22°C° 0 mm 3 mps 747 mmHg 54%
    14:00 +22°C° 0 mm 3 mps 746 mmHg 55%
    15:00 +22°C° 0 mm 3 mps 746 mmHg 56%
    16:00 +22°C° 0.2 mm 3 mps 746 mmHg 61%
    17:00 +23°C° 0.2 mm 2 mps 745 mmHg 66%
    18:00 +21°C° 0.2 mm 2 mps 744 mmHg 71%
    19:00 +20°C° 0.1 mm 2 mps 744 mmHg 75%
    20:00 +19°C° 0.1 mm 2 mps 744 mmHg 78%
    21:00 +17°C° 0.1 mm 2 mps 743 mmHg 82%
    22:00 +17°C° 0 mm 2 mps 743 mmHg 85%
    23:00 +16°C° 0 mm 2 mps 742 mmHg 88%

    Day after tomorrow, 27 June, Thursday

    Time Temperature Precipitation Wind Pressure Humidity
    00:00 +16°C° 0 mm 3 mps 741 mmHg 90%
    01:00 +14°C° 0 mm 3 mps 741 mmHg 90%
    02:00 +14°C° 0 mm 3 mps 740 mmHg 90%
    03:00 +14°C° 0 mm 4 mps 739 mmHg 90%
    04:00 +14°C° 0.6 mm 4 mps 738 mmHg 91%
    05:00 +14°C° 0.6 mm 4 mps 737 mmHg 92%
    06:00 +14°C° 0.6 mm 4 mps 737 mmHg 93%
    07:00 +15°C° 2 mm 5 mps 736 mmHg 93%
    08:00 +16°C° 2 mm 5 mps 735 mmHg 94%
    09:00 +16°C° 2 mm 6 mps 734 mmHg 94%
    10:00 +17°C° 0.9 mm 6 mps 734 mmHg 93%
    11:00 +19°C° 0.9 mm 6 mps 733 mmHg 93%
    12:00 +19°C° 0.9 mm 6 mps 732 mmHg 92%
    13:00 +18°C° 1.8 mm 7 mps 731 mmHg 92%
    14:00 +20°C° 1.8 mm 7 mps 731 mmHg 92%
    15:00 +20°C° 1.8 mm 8 mps 730 mmHg 92%
    16:00 +20°C° 0.1 mm 8 mps 730 mmHg 90%
    17:00 +21°C° 0.1 mm 7 mps 729 mmHg 89%
    18:00 +21°C° 0.1 mm 7 mps 728 mmHg 88%
    19:00 +20°C° 1.2 mm 6 mps 727 mmHg 90%
    20:00 +20°C° 1.2 mm 6 mps 727 mmHg 92%
    21:00 +19°C° 1.2 mm 5 mps 726 mmHg 95%
    22:00 +19°C° 4 mm 5 mps 725 mmHg 95%
    23:00 +19°C° 4 mm 4 mps 725 mmHg 95%

    28 June, Friday

    Time Temperature Precipitation Wind Pressure Humidity
    00:00 +18°C° 4 mm 3 mps 724 mmHg 95%
    01:00 +18°C° 0 mm 4 mps 724 mmHg 95%
    02:00 +16°C° 0 mm 5 mps 724 mmHg 95%
    03:00 +16°C° 0 mm 6 mps 723 mmHg 95%
    04:00 +15°C° 0 mm 6 mps 723 mmHg 94%
    05:00 +15°C° 0 mm 6 mps 723 mmHg 93%
    06:00 +14°C° 0 mm 6 mps 723 mmHg 93%
    07:00 +14°C° 0 mm 6 mps 723 mmHg 90%
    08:00 +14°C° 0 mm 7 mps 723 mmHg 88%
    09:00 +15°C° 0 mm 7 mps 723 mmHg 86%
    10:00 +14°C° 0.1 mm 7 mps 723 mmHg 86%
    11:00 +14°C° 0.1 mm 7 mps 723 mmHg 86%
    12:00 +14°C° 0.1 mm 7 mps 722 mmHg 86%
    13:00 +15°C° 0.1 mm 7 mps 722 mmHg 84%
    14:00 +15°C° 0.1 mm 7 mps 722 mmHg 83%
    15:00 +16°C° 0.1 mm 7 mps 722 mmHg 81%
    16:00 +15°C° 0.4 mm 6 mps 722 mmHg 84%
    17:00 +14°C° 0.4 mm 6 mps 722 mmHg 88%
    18:00 +13°C° 0.4 mm 6 mps 722 mmHg 92%
    19:00 +13°C° 0.1 mm 6 mps 722 mmHg 92%
    20:00 +11°C° 0.1 mm 6 mps 722 mmHg 93%
    21:00 +11°C° 0.1 mm 6 mps 723 mmHg 94%
    22:00 +11°C° 0.2 mm 6 mps 723 mmHg 94%
    23:00 +10°C° 0.2 mm 5 mps 723 mmHg 95%

    29 June, Saturday

    Time Temperature Precipitation Wind Pressure Humidity
    00:00 +10°C° 0.2 mm 5 mps 723 mmHg 95%
    01:00 +10°C° 0.6 mm 6 mps 723 mmHg 95%
    02:00 +10°C° 0.6 mm 6 mps 723 mmHg 95%
    03:00 +10°C° 0.6 mm 6 mps 723 mmHg 95%
    04:00 +10°C° 0.3 mm 6 mps 723 mmHg 95%
    05:00 +10°C° 0.3 mm 6 mps 724 mmHg 95%
    06:00 +10°C° 0.3 mm 6 mps 724 mmHg 95%
    07:00 +10°C° 0.5 mm 6 mps 724 mmHg 95%
    08:00 +10°C° 0.5 mm 7 mps 725 mmHg 94%
    09:00 +10°C° 0.5 mm 7 mps 725 mmHg 94%
    10:00 +10°C° 0.3 mm 7 mps 726 mmHg 93%
    11:00 +10°C° 0.3 mm 7 mps 727 mmHg 92%
    12:00 +10°C° 0.3 mm 7 mps 728 mmHg 92%
    13:00 +10°C° 0.1 mm 7 mps 728 mmHg 91%
    14:00 +9°C° 0.1 mm 7 mps 729 mmHg 91%
    15:00 +9°C° 0.1 mm 7 mps 730 mmHg 90%
    16:00 +9°C° 0 mm 6 mps 730 mmHg 88%
    17:00 +9°C° 0 mm 6 mps 730 mmHg 86%
    18:00 +9°C° 0 mm 5 mps 731 mmHg 84%
    19:00 +10°C° 0 mm 4 mps 731 mmHg 83%
    20:00 +10°C° 0 mm 4 mps 732 mmHg 82%
    21:00 +10°C° 0 mm 3 mps 732 mmHg 80%
    22:00 +9°C° 0 mm 3 mps 732 mmHg 82%
    23:00 +9°C° 0 mm 3 mps 732 mmHg 85%

    30 June, Sunday

    Time Temperature Precipitation Wind Pressure Humidity
    00:00 +9°C° 0 mm 3 mps 732 mmHg 87%
    01:00 +9°C° 0 mm 3 mps 732 mmHg 86%
    02:00 +8°C° 0 mm 3 mps 733 mmHg 85%
    03:00 +8°C° 0 mm 3 mps 733 mmHg 84%
    04:00 +9°C° 0 mm 3 mps 733 mmHg 84%
    05:00 +9°C° 0 mm 3 mps 733 mmHg 83%
    06:00 +9°C° 0 mm 3 mps 733 mmHg 83%
    07:00 +10°C° 0 mm 3 mps 734 mmHg 80%
    08:00 +11°C° 0 mm 3 mps 734 mmHg 76%
    09:00 +12°C° 0 mm 4 mps 734 mmHg 73%
    10:00 +13°C° 0 mm 4 mps 734 mmHg 68%
    11:00 +15°C° 0 mm 4 mps 735 mmHg 64%
    12:00 +17°C° 0 mm 4 mps 735 mmHg 59%
    13:00 +17°C° 0.1 mm 4 mps 735 mmHg 58%
    14:00 +18°C° 0.1 mm 4 mps 735 mmHg 57%
    15:00 +18°C° 0.1 mm 4 mps 735 mmHg 56%
    16:00 +18°C° 0.1 mm 3 mps 735 mmHg 59%
    17:00 +18°C° 0.1 mm 3 mps 735 mmHg 62%
    18:00 +18°C° 0.1 mm 3 mps 735 mmHg 65%
    19:00 +16°C° 0 mm 2 mps 735 mmHg 68%
    20:00 +14°C° 0 mm 2 mps 736 mmHg 71%
    21:00 +13°C° 0 mm 2 mps 736 mmHg 73%
    22:00 +12°C° 0 mm 2 mps 736 mmHg 76%
    23:00 +12°C° 0 mm 2 mps 736 mmHg 79%
    Show more